Flag for Faroe Islands Weather past 2 weeks in Tórshavn, Faroe Islands, Faroe Islands

Now
57 °F

Partly sunny.


Feels Like: 55 °F
Forecast: 51 / 56 °F
Wind: 9 mph from Southeast

Location: Soervaag / Vagar

Current Time: Aug 30, 2014 at 5:33:41 PM

Latest Report: Aug 30, 2014 at 4:50 PM


Visibility: N/A

Pressure: 29.89 "Hg

Humidity: 88%

Dew point: 54 °F

Location of TórshavnLocation

Historic Weather in Tórshavn — Graph

°F

Tórshavn temperature yesterday

Maximum temperature yesterday: 61 °F (at 3:20 PM)
Minimum temperature yesterday: 54 °F (at 12:20 AM)
Average temperature yesterday: 56 °F

Past Weeks' High & Low Weather Summary

 TemperatureHumidityPressure
High61 °F (Aug 29, 3:20 PM)100% (Aug 15, 6:20 PM)30.04 "Hg (Aug 15, 6:20 PM)
Low43 °F (Aug 26, 2:50 AM)62% (Aug 23, 11:50 AM)29.27 "Hg (Aug 16, 11:50 AM)
Average51 °F85%29.84 "Hg
* Reported Aug 15 4:20 PM — Aug 30 4:20 PM, Tórshavn, Weather by CustomWeather, © 2014

Note: Actual official high and low records may vary slightly from our data, if they occured in-between our weather recording intervals... More about our weather records

Advertising

Tórshavn weather history for previous 24 hours

 ConditionsComfort  
Time TempWeatherWind HumidityBarometerVisibility
4:20 PM
Aug 30
59 °FPartly sunny.6 mph77%29.89 "HgN/A
3:50 PM59 °FBroken clouds.9 mph77%29.89 "HgN/A
3:20 PM59 °FPartly sunny.7 mph72%29.89 "HgN/A
2:50 PM59 °FPartly sunny.8 mph77%29.86 "HgN/A
2:20 PM59 °FBroken clouds.7 mph77%29.86 "HgN/A
1:50 PM57 °FPartly sunny.9 mph88%29.86 "HgN/A
1:20 PM57 °FPartly sunny.12 mph88%29.86 "HgN/A
12:50 PM59 °FPartly sunny.12 mph82%29.86 "HgN/A
12:20 PM57 °FPartly sunny.7 mph94%29.86 "HgN/A
11:50 AM57 °FPartly sunny.9 mph94%29.83 "HgN/A
11:20 AM57 °FPartly sunny.9 mph88%29.83 "HgN/A
10:50 AM57 °FPartly sunny.9 mph88%29.83 "HgN/A
10:20 AM57 °FPartly sunny.6 mph88%29.80 "HgN/A
9:50 AM57 °FPartly sunny.5 mph88%29.80 "HgN/A
9:20 AM55 °FSprinkles. Partly sunny.No wind100%29.80 "HgN/A
8:50 AM55 °FSprinkles. Overcast.1 mph94%29.80 "Hg4 mi
8:20 AM55 °FSprinkles. Partly sunny.3 mph94%29.80 "HgN/A
7:50 AM55 °FPassing clouds.12 mph94%29.77 "HgN/A
7:20 AM55 °FSprinkles. Passing clouds.9 mph94%29.77 "HgN/A
6:50 AM55 °FPassing clouds.12 mph88%29.77 "HgN/A
6:20 AM55 °FPassing clouds.10 mph88%29.77 "HgN/A
5:50 AM54 °FPassing clouds.9 mph88%29.77 "HgN/A
5:20 AM55 °FPassing clouds.12 mph82%29.74 "HgN/A
4:50 AM55 °FPassing clouds.12 mph82%29.74 "HgN/A
4:20 AM55 °FPartly cloudy.7 mph82%29.74 "HgN/A
3:50 AM54 °FPassing clouds.5 mph88%29.74 "HgN/A
3:20 AM54 °FPassing clouds.3 mph88%29.74 "HgN/A
2:50 AM54 °FCool.8 mph88%29.74 "HgN/A
2:20 AM54 °FPassing clouds.7 mph88%29.74 "HgN/A
1:50 AM50 °FPassing clouds.1 mph94%29.74 "HgN/A
1:20 AM52 °FCool.2 mph94%29.74 "HgN/A
12:50 AM50 °FPassing clouds.3 mph100%29.74 "HgN/A
12:20 AM52 °FPassing clouds.1 mph94%29.74 "HgN/A
11:50 PM
Aug 29
54 °FPassing clouds.2 mph94%29.71 "HgN/A
11:20 PM54 °FPassing clouds.9 mph94%29.71 "HgN/A
10:50 PM54 °FPassing clouds.2 mph94%29.71 "HgN/A
10:20 PM54 °FPartly sunny.2 mph88%29.71 "HgN/A
8:20 PM55 °FPartly sunny.5 mph88%29.68 "HgN/A
7:50 PM55 °FPartly sunny.5 mph88%29.68 "HgN/A
7:20 PM55 °FPartly sunny.8 mph88%29.68 "HgN/A
6:50 PM55 °FScattered clouds.3 mph88%29.68 "HgN/A
6:20 PM55 °FPassing clouds.13 mph88%29.68 "HgN/A
5:50 PM55 °FPassing clouds.13 mph94%29.65 "HgN/A
5:20 PM55 °FPartly sunny.15 mph94%29.65 "HgN/A
Weather by CustomWeather, © 2014

See weather overviewHow to use our weather pages